This demonstration page uses our WeatherBlox Daily Observations layout. Learn more.

Left ArrowRight Arrow

Hourly Observations for May 7, 2020

Temp ( °F °C ) Dew Point ( °F °C ) Humidity (%) Winds ( mph kmh ) Pressure ( in mb ) Visibility ( mi km ) Precip ( " mm )
12:54 am 00:54 Clear 42 5.6 35 1.7 76 76 Calm 30.23 1024 10 16.0934 0 0
1:54 am 01:54 Clear 43 6.1 36 2.2 76 76 Calm 30.22 1023 10 16.0934 0 0
2:54 am 02:54 Clear 37 2.8 33 0.6 86 86 N 3 6 30.21 1023 10 16.0934 0 0
3:54 am 03:54 Clear 38 3.3 33 0.6 83 83 Calm 30.19 1023 10 16.0934 0 0
4:54 am 04:54 Clear 38 3.3 34 1.1 86 86 Calm 30.19 1022 10 16.0934 0 0
5:54 am 05:54 Clear 39 3.9 35 1.7 86 86 Calm 30.16 1021 10 16.0934 0 0
6:54 am 06:54 Sunny 40 4.4 37 2.8 89 89 S 3 6 30.14 1021 10 16.0934 0 0
7:54 am 07:54 Sunny 45 7.2 39 3.9 80 80 Calm 30.13 1020 10 16.0934 0 0
8:54 am 08:54 Mostly Cloudy 49 9.4 41 5 74 74 Calm 30.15 1021 10 16.0934 0 0
9:54 am 09:54 Cloudy 52 11.1 43 6.1 72 72 ENE 5 7 30.16 1021 10 16.0934 0 0
10:54 am 10:54 Cloudy with Light Rain 55 12.8 42 5.6 62 62 S 6 9 30.13 1020 10 16.0934 0.001 0.001
11:54 am 11:54 Cloudy 58 14.4 39 3.9 50 50 SE 9 15 30.07 1018 10 16.0934 0.001 0.001
12:54 pm 12:54 Mostly Cloudy 61 16.1 37 2.8 41 41 E 13 20 30.03 1017 10 16.0934 0 0
1:54 pm 13:54 Cloudy 59 15 37 2.8 44 44 SSE 12 19 30.02 1017 10 16.0934 0 0
2:54 pm 14:54 Cloudy 58 14.4 38 3.3 48 48 ESE 9 15 30.02 1017 10 16.0934 0 0
3:54 pm 15:54 Cloudy 58 14.4 38 3.3 48 48 ESE 14 22 29.98 1015 10 16.0934 0 0
4:54 pm 16:54 Cloudy 57 13.9 39 3.9 51 51 ESE 16 26 29.98 1015 10 16.0934 0 0
5:54 pm 17:54 Cloudy 56 13.3 40 4.4 55 55 SE 15 24 29.99 1016 10 16.0934 0 0
6:54 pm 18:54 Cloudy 53 11.7 43 6.1 69 69 SSE 9 15 30 1016 10 16.0934 0 0
7:54 pm 19:54 Cloudy 52 11.1 44 6.7 75 75 SE 14 22 29.99 1016 10 16.0934 0.001 0.001
8:54 pm 20:54 Cloudy 52 11.1 44 6.7 75 75 ESE 10 17 29.99 1016 10 16.0934 0 0
9:54 pm 21:54 Cloudy 52 11.1 44 6.7 75 75 E 7 11 30 1016 10 16.0934 0 0
10:54 pm 22:54 Cloudy with Heavy Rain 49 9.4 45 7.2 86 86 NNE 12 19 30.05 1018 3 4.82802 0.07 1.778
11:02 pm 23:02 Cloudy with Heavy Rain 49 9.4 45 7.2 86 86 NE 12 19 30.05 1018 2.5 4.02335 0.06 1.524
11:22 pm 23:22 Cloudy with Rain 48 8.9 46 7.8 93 93 N 13 20 30.09 1019 4 6.43736 0.15 3.81
11:35 pm 23:35 Cloudy with Rain 48 8.9 45 7.2 89 89 NNE 15 24 30.09 1019 4 6.43736 0.19 4.826
11:42 pm 23:42 Cloudy with Rain 48 8.9 45 7.2 89 89 NNE 17 28 30.09 1019 4 6.43736 0.22 5.588
11:54 pm 23:54 Cloudy with Heavy Rain 47 8.3 45 7.2 93 93 NNE 18 30 30.08 1019 4 6.43736 0.28 7.112

Powered by AerisWeather